Weather History for Palmer, AK

Change the Weather History Date:

Sunday, May 11, 2014

  Actual Average Record
Temperature  
Mean Temperature 54 °F -  
Max Temperature 71 °F 56 °F 71 °F (2005)
Min Temperature 39 °F 36 °F 22 °F (1964)
Degree Days  
Heating Degree Days 10    
Growing Degree Days 4 (Base 50)    
Moisture  
Dew Point 32 °F    
Average Humidity 45    
Maximum Humidity 73    
Minimum Humidity 20    
Precipitation  
Precipitation 0.00 in - - ()
Sea Level Pressure  
Sea Level Pressure 30.21 in    
Wind  
Wind Speed 3 mph (SE)    
Max Wind Speed 12 mph    
Max Gust Speed -    
Visibility 10 miles    
Events      
Averages and records for this station are not official NWS values.
T = Trace of Precipitation, MM = Missing Value Source: NWS Daily Summary

Daily Weather History Graph

Daily Weather History Graph

Search for Another Location

Airport:

Trip Planner

Search our weather history database for the weather conditions in past years. The results will help you decide how hot, cold, wet, or windy it might be!

Date:

Astronomy

May. 11, 2014 Rise Set
Actual Time 5:16 AM AKDT 10:31 PM AKDT
Civil Twilight 4:08 AM AKDT 11:40 PM AKDT
Nautical Twilight 2:25 AM AKDT 1:20 AM AKDT
Astronomical Twilight Sun does not rise Sun does not rise
Moon 6:42 PM AKDT (5/11) 4:31 AM AKDT (5/11)
Length of Visible Light 19h 31m
Length of Day
17h 14m
Waxing Gibbous, 90% of the Moon is Illuminated
May 11
Waxing Gibbous
May 14
Full
May 21
Last Quarter
May 28
New
Jun 5
First Quarter

Hourly Weather History & Observations

Time (AKDT) Temp. Windchill Dew Point Humidity Pressure Visibility Wind Dir Wind Speed Gust Speed Precip Events Conditions
12:53 AM 48.0 °F - 34.0 °F 58% 30.21 in 10.0 mi Calm Calm - N/A   Clear
1:53 AM 45.0 °F 41.8 °F 33.1 °F 63% 30.21 in 10.0 mi North 5.8 mph - N/A   Clear
2:53 AM 42.1 °F - 33.1 °F 70% 30.22 in 10.0 mi Calm Calm - N/A   Clear
3:53 AM 39.9 °F - 32.0 °F 73% 30.22 in 10.0 mi Calm Calm - N/A   Clear
4:53 AM 39.9 °F - 32.0 °F 73% 30.23 in 10.0 mi Calm Calm - N/A   Clear
5:53 AM 39.0 °F - 30.9 °F 73% 30.23 in 10.0 mi Calm Calm - N/A   Clear
6:53 AM 41.0 °F - 32.0 °F 70% 30.24 in 10.0 mi Calm Calm - N/A   Clear
7:53 AM 46.9 °F - 36.0 °F 66% 30.24 in 10.0 mi Calm Calm - N/A   Clear
8:53 AM 52.0 °F - 33.1 °F 49% 30.24 in 10.0 mi SSE 4.6 mph - N/A   Clear
9:53 AM 55.0 °F - 33.1 °F 43% 30.23 in 10.0 mi SSE 4.6 mph - N/A   Clear
10:53 AM 57.9 °F - 34.0 °F 41% 30.23 in 10.0 mi SSE 4.6 mph - N/A   Clear
11:53 AM 61.0 °F - 34.0 °F 36% 30.22 in 10.0 mi Variable 4.6 mph - N/A   Clear
12:53 PM 64.9 °F - 33.1 °F 31% 30.21 in 10.0 mi Variable 5.8 mph - N/A   Clear
1:53 PM 66.9 °F - 30.9 °F 26% 30.20 in 10.0 mi Variable 3.5 mph - N/A   Clear
2:53 PM 70.0 °F - 27.0 °F 20% 30.19 in 10.0 mi SW 4.6 mph - N/A   Clear
3:53 PM 70.0 °F - 30.9 °F 24% 30.18 in 10.0 mi WSW 6.9 mph - N/A   Clear
4:53 PM 70.0 °F - 30.9 °F 24% 30.17 in 10.0 mi Calm Calm - N/A   Clear
5:53 PM 70.0 °F - 33.1 °F 26% 30.17 in 10.0 mi Variable 5.8 mph - N/A   Clear
6:53 PM 70.0 °F - 34.0 °F 27% 30.16 in 10.0 mi Variable 6.9 mph - N/A   Clear
7:53 PM 66.9 °F - 30.9 °F 26% 30.17 in 10.0 mi SE 11.5 mph - N/A   Clear
8:53 PM 63.0 °F - 30.9 °F 30% 30.18 in 10.0 mi SE 10.4 mph - N/A   Clear
9:53 PM 57.0 °F - 30.9 °F 37% 30.19 in 10.0 mi SE 10.4 mph - N/A   Clear
10:53 PM 55.0 °F - 30.9 °F 40% 30.22 in 10.0 mi East 8.1 mph - N/A   Clear
11:53 PM 52.0 °F - 30.0 °F 43% 30.24 in 10.0 mi ENE 3.5 mph - N/A   Clear